FW8621 Weather Reports


time (UTC)temp
C
wind
direction
speed
KPH
gust
KPH
rain 1hr
cm
rain 24hr
cm
rain mn
cm
humidity
%
barometer
mb
20260503211557 14 0 0.0 0.0 0.00 0.00 0.00 70 1019.7
20260503210100 15 0 0.0 0.0 0.00 0.00 0.00 70 1019.7
20260503204609 15 0 0.0 0.0 0.00 0.00 0.00 71 1019.8
20260503203107 15 0 0.0 1.6 0.00 0.00 0.00 71 1019.7
20260503201559 15 0 0.0 0.0 0.00 0.00 0.00 69 1019.8
20260503194622 16 0 0.0 0.0 0.00 0.00 0.00 69 1019.8
20260503193058 16 0 0.0 0.0 0.00 0.00 0.00 68 1019.6
20260503191604 16 0 0.0 0.0 0.00 0.00 0.00 68 1019.6
20260503184600 17 0 0.0 0.0 0.00 0.00 0.00 65 1019.5
20260503183106 18 0 0.0 0.0 0.00 0.00 0.00 63 1019.3
20260503181601 19 0 0.0 0.0 0.00 0.00 0.00 59 1019.3
20260503180109 20 0 0.0 0.0 0.00 0.00 0.00 56 1019.3
20260503174600 21 0 0.0 0.0 0.00 0.00 0.00 53 1019.2
20260503173205 22 0 0.0 1.6 0.00 0.00 0.00 54 1019.4
20260503171606 23 0 0.0 1.6 0.00 0.00 0.00 49 1019.4
20260503170110 25 0 0.0 3.2 0.00 0.00 0.00 43 1019.4
20260503160105 28 0 0.0 1.6 0.00 0.00 0.00 37 1019.6
20260503130110 27 0 0.0 3.2 0.00 0.00 0.00 48 1020.8
20260503120109 25 139 0.0 3.2 0.00 0.00 0.00 53 1021.1
20260503100113 23 0 0.0 4.8 0.00 0.00 0.00 38 1021.9
20260503090104 22 0 0.0 4.8 0.00 0.00 0.00 42 1022.1
20260503081600 20 146 0.0 3.2 0.00 0.00 0.00 47 1022.4
20260503071602 16 0 0.0 1.6 0.00 0.00 0.00 64 1022.7
20260503060104 12 0 0.0 0.0 0.00 0.00 0.00 74 1022.6
20260503054603 11 0 0.0 0.0 0.00 0.00 0.00 75 1022.4
20260503053058 11 0 0.0 1.6 0.00 0.00 0.00 77 1022.6
20260503051600 10 0 0.0 0.0 0.00 0.00 0.00 76 1022.5
20260503050059 10 0 0.0 0.0 0.00 0.00 0.00 78 1022.5
20260503044559 9 0 0.0 0.0 0.00 0.00 0.00 77 1022.4
20260503043102 8 0 0.0 0.0 0.00 0.00 0.00 78 1022.5
20260503041601 8 0 0.0 0.0 0.00 0.00 0.00 77 1022.4
20260503034600 8 0 0.0 1.6 0.00 0.00 0.00 77 1022.4
20260503033059 8 0 0.0 1.6 0.00 0.00 0.00 77 1022.4
20260503031610 8 0 0.0 0.0 0.00 0.00 0.00 77 1022.4
20260503024611 9 0 0.0 1.6 0.00 0.00 0.00 76 1022.4
20260503023102 10 0 0.0 1.6 0.00 0.00 0.00 75 1022.5
20260503021600 9 0 0.0 1.6 0.00 0.00 0.00 75 1022.5
20260503020104 10 0 0.0 1.6 0.00 0.00 0.00 74 1022.6
20260503014601 10 0 0.0 1.6 0.00 0.00 0.00 74 1022.7
20260503013103 10 0 0.0 1.6 0.00 0.00 0.00 73 1022.7
20260503011609 10 0 0.0 1.6 0.00 0.00 0.00 73 1022.7
20260503010104 10 0 0.0 0.0 0.00 0.00 0.00 73 1022.9
20260503004558 10 0 0.0 1.6 0.00 0.00 0.00 73 1023.1
20260503003104 10 0 0.0 0.0 0.00 0.00 0.00 72 1023.4
20260503001559 10 0 0.0 1.6 0.00 0.00 0.00 72 1023.4
20260503000110 10 0 0.0 1.6 0.00 0.00 0.00 71 1023.5
20260502234601 10 0 0.0 0.0 0.00 0.00 0.00 71 1023.7
20260502233113 10 0 0.0 0.0 0.00 0.00 0.00 71 1023.8
20260502231618 11 0 0.0 1.6 0.00 0.00 0.00 70 1023.8
20260502230059 11 0 0.0 1.6 0.00 0.00 0.00 71 1024.0
20260502224603 11 0 0.0 1.6 0.00 0.00 0.00 69 1024.2
20260502223058 11 0 0.0 0.0 0.00 0.00 0.00 69 1024.2
20260502221559 11 0 0.0 1.6 0.00 0.00 0.00 67 1024.3
20260502220101 12 0 0.0 1.6 0.00 0.00 0.00 67 1024.3
20260502214608 11 0 0.0 0.0 0.00 0.00 0.00 66 1024.3
20260502213058 12 0 0.0 1.6 0.00 0.00 0.00 67 1024.3